{"data":{"norad_id":61018,"epoch":"2026-05-25T03:47:55.093056Z","epoch_age_seconds":71786,"freshness":"FRESH","line1":"1 61018U 24159H   26145.15827654  .00001186  00000+0  16714-3 0  9990","line2":"2 61018  50.0041 189.8848 0027865   3.9853 356.1303 14.84138479 93350","mean_motion":14.84138479,"eccentricity":0.0027865,"inclination_deg":50.0041,"raan_deg":189.8848,"arg_perigee_deg":3.9853,"mean_anomaly_deg":356.1303,"bstar":0.00016714,"rev_number":9335,"period_min":97.025986481414,"perigee_km":596.80135785036,"apogee_km":635.78130694682,"semimajor_km":6994.4283323986,"source":"CELESTRAK","updated_at":"2026-05-25T13:38:02.277983Z"}}